Custer, SD

4:48 PM MDT on September 27, 2016 (GMT -0600)
Custer County

Weather History for KCUT - August, 2012

Change the Weather History Date:

Friday, August 17, 2012

  Actual Average Record
Temperature  
Mean Temperature 58 °F 64 °F  
Max Temperature 77 °F 78 °F 91 °F (1948)
Min Temperature 39 °F 50 °F 32 °F (2002)
Degree Days  
Heating Degree Days 7 3  
Month to date heating degree days 37 39  
Since 1 June heating degree days 147 320  
Since 1 July heating degree days 43 100  
Cooling Degree Days 0 2  
Month to date cooling degree days 39 34  
Year to date cooling degree days 306 141  
Since 1 June cooling degree days 306 140  
Growing Degree Days 7 (Base 50)    
Moisture  
Dew Point 38 °F    
Average Humidity 58    
Maximum Humidity 92    
Minimum Humidity 23    
Precipitation  
Precipitation 0.00 in 0.07 in 3.15 in (2007)
Month to date precipitation 0.19 1.17  
Year to date precipitation 10.14 13.94  
Sea Level Pressure  
Sea Level Pressure 30.06 in    
Wind  
Wind Speed 6 mph (NW)    
Max Wind Speed 15 mph    
Max Gust Speed 21 mph    
Visibility 10 miles    
Events      
T = Trace of Precipitation, MM = Missing Value Source: NWS Daily Summary

Daily Weather History Graph

Daily Weather History Graph

Search for Another Location

Airport or City:

Trip Planner

Search our weather history database for the weather conditions in past years. The results will help you decide how hot, cold, wet, or windy it might be!

Date:

Astronomy

Aug. 17, 2012 Rise Set
Actual Time 6:01 AM MDT 7:54 PM MDT
Civil Twilight 5:30 AM MDT 8:25 PM MDT
Nautical Twilight 4:53 AM MDT 9:02 PM MDT
Astronomical Twilight 4:12 AM MDT 9:43 PM MDT
Moon 6:09 AM MDT (8/17) 7:35 PM MDT (8/17)
Length of Visible Light 14h 54m
Length of Day
13h 52m
New Moon, 0% of the Moon is Illuminated
Aug 17
New Moon
Aug 24
First Quarter
Aug 31
Full
Sep 8
Last Quarter
Sep 15
New

Hourly Weather History & Observations

Time (MDT) Temp. Windchill Dew Point Humidity Pressure Visibility Wind Dir Wind Speed Gust Speed Precip Events Conditions
12:53 AM 43.0 °F - 37.0 °F 80% 30.16 in 10.0 mi Calm Calm - N/A   Clear
2:53 AM 39.9 °F 37.8 °F 36.0 °F 86% 30.14 in 10.0 mi NW 3.5 mph - N/A   Clear
3:53 AM 39.9 °F - 36.0 °F 86% 30.14 in 10.0 mi Calm Calm - N/A   Clear
4:53 AM 39.9 °F 37.8 °F 36.0 °F 86% 30.14 in 10.0 mi NW 3.5 mph - N/A   Clear
5:53 AM 39.9 °F - 37.0 °F 89% 30.14 in 10.0 mi Calm Calm - N/A   Clear
6:53 AM 44.1 °F 42.5 °F 37.9 °F 79% 30.12 in 10.0 mi West 3.5 mph - N/A   Clear
7:53 AM 55.0 °F - 39.9 °F 57% 30.09 in 10.0 mi South 4.6 mph - N/A   Clear
8:53 AM 59.0 °F - 39.0 °F 48% 30.09 in 10.0 mi South 8.1 mph 16.1 mph N/A   Clear
9:53 AM 62.1 °F - 39.9 °F 44% 30.09 in 10.0 mi West 10.4 mph - N/A   Clear
10:53 AM 64.0 °F - 41.0 °F 43% 30.07 in 10.0 mi SW 5.8 mph - N/A   Clear
11:53 AM 68.0 °F - 39.9 °F 36% 30.05 in 10.0 mi Variable 5.8 mph - N/A   Clear
12:53 PM 69.1 °F - 39.0 °F 33% 30.04 in 10.0 mi WSW 8.1 mph - N/A   Clear
1:53 PM 73.9 °F - 36.0 °F 25% 30.00 in 10.0 mi Variable 6.9 mph 17.3 mph N/A   Clear
2:53 PM 75.9 °F - 35.1 °F 23% 29.98 in 10.0 mi West 13.8 mph 19.6 mph N/A   Clear
3:53 PM 73.9 °F - 37.9 °F 27% 29.99 in 10.0 mi NE 13.8 mph 18.4 mph N/A   Mostly Cloudy
4:53 PM 73.0 °F - 37.9 °F 28% 29.99 in 10.0 mi ESE 10.4 mph - N/A   Scattered Clouds
5:53 PM 71.1 °F - 39.0 °F 31% 30.01 in 10.0 mi ENE 10.4 mph - N/A   Mostly Cloudy
6:53 PM 70.0 °F - 39.9 °F 33% 29.99 in 10.0 mi East 8.1 mph - N/A   Clear
7:53 PM 64.9 °F - 39.9 °F 40% 29.99 in 10.0 mi ENE 4.6 mph - N/A   Clear
8:53 PM 62.1 °F - 39.0 °F 43% 30.01 in 10.0 mi NNE 3.5 mph - N/A   Clear
9:53 PM 57.9 °F - 39.0 °F 49% 30.02 in 10.0 mi NNE 3.5 mph - N/A   Clear
10:53 PM 55.0 °F - 36.0 °F 49% 30.03 in 10.0 mi NW 3.5 mph - N/A   Clear
11:53 PM 53.1 °F - 33.1 °F 47% 30.02 in 10.0 mi NNW 3.5 mph - N/A   Clear